FW8324 Weather Reports


time (UTC)temp
C
wind
direction
speed
KPH
gust
KPH
rain 1hr
cm
rain 24hr
cm
rain mn
cm
humidity
%
barometer
mb
20260503213053 28 305 1.6 8.0 0.00 0.00 0.00 39 1010.6
20260503211553 27 283 3.2 12.9 0.00 0.00 0.00 39 1010.8
20260503210051 27 261 3.2 16.1 0.00 0.00 0.00 40 1011.0
20260503204555 27 272 4.8 14.5 0.00 0.00 0.00 41 1011.1
20260503203055 26 9 4.8 16.1 0.00 0.00 0.00 42 1011.3
20260503201558 26 266 3.2 12.9 0.00 0.00 0.00 42 1011.4
20260503200047 25 296 3.2 12.9 0.00 0.00 0.00 43 1011.6
20260503194554 26 305 4.8 14.5 0.00 0.00 0.00 43 1011.8
20260503193058 25 277 3.2 11.3 0.00 0.00 0.00 44 1012.1
20260503191550 25 265 1.6 11.3 0.00 0.00 0.00 45 1012.3
20260503190057 23 302 1.6 12.9 0.00 0.00 0.00 49 1012.4
20260503184602 23 302 3.2 11.3 0.00 0.00 0.00 50 1012.5
20260503183050 23 23 1.6 12.9 0.00 0.00 0.00 50 1012.7
20260503181552 22 289 3.2 8.0 0.00 0.00 0.00 54 1012.8
20260503180058 21 12 3.2 16.1 0.00 0.00 0.00 58 1012.9
20260503174606 21 11 3.2 9.7 0.00 0.00 0.00 58 1012.9
20260503173057 20 333 3.2 11.3 0.00 0.00 0.00 61 1013.2
20260503171553 20 92 3.2 9.7 0.00 0.00 0.00 61 1013.1
20260503100110 13 0 1.6 4.8 0.00 0.00 0.00 78 1013.4
20260503081553 15 90 1.6 4.8 0.00 0.00 0.00 67 1013.6
20260503071549 17 105 3.2 6.4 0.00 0.00 0.00 59 1013.5
20260503054549 18 0 0.0 1.6 0.00 0.00 0.00 53 1013.4
20260503053049 18 0 1.6 6.4 0.00 0.00 0.00 52 1013.5
20260503051549 18 78 0.0 3.2 0.00 0.00 0.00 52 1013.4
20260503050049 18 0 0.0 3.2 0.00 0.00 0.00 52 1013.4
20260503044553 19 350 0.0 4.8 0.00 0.00 0.00 52 1013.4
20260503043048 19 0 0.0 8.0 0.00 0.00 0.00 50 1013.3
20260503041551 20 351 1.6 6.4 0.00 0.00 0.00 49 1013.2
20260503040048 20 25 1.6 6.4 0.00 0.00 0.00 49 1013.1
20260503034603 20 0 1.6 6.4 0.00 0.00 0.00 49 1012.8
20260503033054 21 45 0.0 14.5 0.00 0.00 0.00 50 1012.7
20260503031553 21 31 3.2 11.3 0.00 0.00 0.00 49 1012.4
20260503030050 21 20 3.2 12.9 0.00 0.00 0.00 50 1012.3
20260503024551 22 49 1.6 9.7 0.00 0.00 0.00 51 1012.2
20260503023049 22 259 1.6 16.1 0.00 0.00 0.00 51 1012.1
20260503021550 23 287 3.2 14.5 0.00 0.00 0.00 51 1012.1
20260503020048 23 299 0.0 11.3 0.00 0.00 0.00 53 1012.0
20260503014600 23 311 4.8 12.9 0.00 0.00 0.00 52 1012.0
20260503013046 23 254 4.8 14.5 0.00 0.00 0.00 51 1012.0
20260503011547 23 270 4.8 12.9 0.00 0.00 0.00 51 1012.1
20260503010045 24 276 3.2 16.1 0.00 0.00 0.00 50 1012.0
20260503004543 24 295 4.8 17.7 0.00 0.00 0.00 48 1012.0
20260503003056 24 300 6.4 17.7 0.00 0.00 0.00 49 1012.1
20260503001604 25 277 4.8 14.5 0.00 0.00 0.00 47 1012.2
20260503000051 25 299 4.8 11.3 0.00 0.00 0.00 47 1012.3
20260502234551 25 97 4.8 12.9 0.00 0.00 0.00 47 1012.4
20260502233050 24 47 6.4 17.7 0.00 0.00 0.00 47 1012.6
20260502231552 25 270 8.0 20.9 0.00 0.00 0.00 46 1012.8
20260502230053 25 291 4.8 12.9 0.00 0.00 0.00 46 1013.0
20260502224549 24 292 3.2 20.9 0.00 0.00 0.00 49 1013.1
20260502223048 24 277 3.2 19.3 0.00 0.00 0.00 51 1013.4
20260502221551 23 287 3.2 11.3 0.00 0.00 0.00 52 1013.5
20260502220051 23 38 4.8 17.7 0.00 0.00 0.00 54 1013.6
20260502214558 23 14 3.2 14.5 0.00 0.00 0.00 55 1013.7